When you browse on this site, cookies collect data to enhance your experience and personalize the content and advertising you see.
Visit our Privacy Policy to learn more. By continuing to use the site, you agree to this use of cookies and data.
  • In Hungary
  • List of Countries
  • For 7 days
  • Water Temperature
  • Satellite Maps
  • Weather Map
  • News
  • Weather Widgets
  • user-avatar
    Login

    Hourly Weather Carcaixent

    Today, 10 December, Monday

    Time Temperature Precipitation Wind Pressure Humidity
    00:00 +15°C° 0 mm 2 mps 769 mmHg 49%
    01:00 +15°C° 0 mm 2 mps 769 mmHg 49%
    02:00 +14°C° 0 mm 2 mps 769 mmHg 49%
    03:00 +14°C° 0 mm 2 mps 769 mmHg 49%
    04:00 +14°C° 0 mm 2 mps 769 mmHg 49%
    05:00 +13°C° 0 mm 2 mps 769 mmHg 49%
    06:00 +13°C° 0 mm 2 mps 769 mmHg 50%
    07:00 +14°C° 0 mm 2 mps 769 mmHg 47%
    08:00 +15°C° 0 mm 2 mps 770 mmHg 45%
    09:00 +17°C° 0 mm 2 mps 770 mmHg 43%
    10:00 +18°C° 0 mm 2 mps 769 mmHg 39%
    11:00 +19°C° 0 mm 2 mps 769 mmHg 35%
    12:00 +21°C° 0 mm 2 mps 769 mmHg 31%
    13:00 +21°C° 0 mm 2 mps 769 mmHg 30%
    14:00 +21°C° 0 mm 3 mps 768 mmHg 30%
    15:00 +21°C° 0 mm 3 mps 768 mmHg 29%
    16:00 +19°C° 0 mm 3 mps 768 mmHg 39%
    17:00 +17°C° 0 mm 3 mps 768 mmHg 49%
    18:00 +14°C° 0 mm 3 mps 768 mmHg 59%
    19:00 +14°C° 0 mm 2 mps 768 mmHg 63%
    20:00 +14°C° 0 mm 2 mps 768 mmHg 67%
    21:00 +13°C° 0 mm 2 mps 767 mmHg 71%
    22:00 +13°C° 0 mm 1 mps 767 mmHg 72%
    23:00 +12°C° 0 mm 1 mps 767 mmHg 73%

    Tomorrow, 11 December, Tuesday

    Time Temperature Precipitation Wind Pressure Humidity
    00:00 +12°C° 0 mm 1 mps 767 mmHg 75%
    01:00 +12°C° 0 mm 1 mps 766 mmHg 74%
    02:00 +12°C° 0 mm 1 mps 766 mmHg 73%
    03:00 +12°C° 0 mm 1 mps 766 mmHg 72%
    04:00 +12°C° 0 mm 1 mps 765 mmHg 70%
    05:00 +12°C° 0 mm 1 mps 765 mmHg 68%
    06:00 +12°C° 0 mm 1 mps 765 mmHg 67%
    07:00 +13°C° 0 mm 1 mps 765 mmHg 62%
    08:00 +15°C° 0 mm 1 mps 765 mmHg 57%
    09:00 +16°C° 0 mm 1 mps 765 mmHg 53%
    10:00 +18°C° 0 mm 2 mps 765 mmHg 46%
    11:00 +20°C° 0 mm 2 mps 765 mmHg 38%
    12:00 +21°C° 0 mm 2 mps 764 mmHg 31%
    13:00 +21°C° 0 mm 3 mps 764 mmHg 30%
    14:00 +22°C° 0 mm 3 mps 763 mmHg 29%
    15:00 +22°C° 0 mm 4 mps 763 mmHg 28%
    16:00 +20°C° 0 mm 4 mps 763 mmHg 32%
    17:00 +18°C° 0 mm 4 mps 763 mmHg 37%
    18:00 +17°C° 0 mm 4 mps 763 mmHg 41%
    19:00 +15°C° 0 mm 4 mps 763 mmHg 41%
    20:00 +15°C° 0 mm 4 mps 763 mmHg 42%
    21:00 +15°C° 0 mm 4 mps 764 mmHg 42%
    22:00 +14°C° 0 mm 4 mps 764 mmHg 43%
    23:00 +14°C° 0 mm 3 mps 764 mmHg 45%

    Day after tomorrow, 12 December, Wednesday

    Time Temperature Precipitation Wind Pressure Humidity
    00:00 +13°C° 0 mm 3 mps 764 mmHg 46%
    01:00 +13°C° 0 mm 3 mps 764 mmHg 47%
    02:00 +13°C° 0 mm 3 mps 764 mmHg 48%
    03:00 +12°C° 0 mm 4 mps 764 mmHg 49%
    04:00 +12°C° 0 mm 3 mps 764 mmHg 51%
    05:00 +12°C° 0 mm 3 mps 764 mmHg 53%
    06:00 +11°C° 0 mm 3 mps 764 mmHg 54%
    07:00 +12°C° 0 mm 3 mps 764 mmHg 53%
    08:00 +13°C° 0 mm 3 mps 764 mmHg 51%
    09:00 +14°C° 0 mm 3 mps 764 mmHg 49%
    10:00 +17°C° 0 mm 3 mps 764 mmHg 44%
    11:00 +19°C° 0 mm 3 mps 763 mmHg 40%
    12:00 +21°C° 0 mm 3 mps 763 mmHg 36%
    13:00 +21°C° 0 mm 3 mps 762 mmHg 36%
    14:00 +21°C° 0 mm 4 mps 762 mmHg 37%
    15:00 +21°C° 0 mm 5 mps 761 mmHg 37%
    16:00 +19°C° 0 mm 5 mps 761 mmHg 43%
    17:00 +17°C° 0 mm 5 mps 761 mmHg 49%
    18:00 +15°C° 0 mm 4 mps 761 mmHg 55%
    19:00 +15°C° 0 mm 5 mps 761 mmHg 57%
    20:00 +15°C° 0 mm 5 mps 761 mmHg 59%
    21:00 +15°C° 0 mm 5 mps 761 mmHg 61%
    22:00 +15°C° 0 mm 6 mps 761 mmHg 63%
    23:00 +15°C° 0 mm 6 mps 761 mmHg 66%

    13 December, Thursday

    Time Temperature Precipitation Wind Pressure Humidity
    00:00 +15°C° 0 mm 6 mps 760 mmHg 69%
    01:00 +15°C° 0 mm 7 mps 760 mmHg 72%
    02:00 +15°C° 0 mm 7 mps 760 mmHg 76%
    03:00 +15°C° 0 mm 8 mps 760 mmHg 79%
    04:00 +14°C° 0.1 mm 7 mps 759 mmHg 80%
    05:00 +14°C° 0.1 mm 7 mps 759 mmHg 81%
    06:00 +14°C° 0.1 mm 7 mps 759 mmHg 81%
    07:00 +15°C° 0 mm 8 mps 759 mmHg 78%
    08:00 +15°C° 0 mm 8 mps 759 mmHg 75%
    09:00 +16°C° 0 mm 9 mps 759 mmHg 71%
    10:00 +17°C° 0 mm 9 mps 759 mmHg 68%
    11:00 +18°C° 0 mm 9 mps 759 mmHg 65%
    12:00 +19°C° 0 mm 9 mps 758 mmHg 62%
    13:00 +19°C° 0.1 mm 9 mps 758 mmHg 63%
    14:00 +18°C° 0.1 mm 8 mps 758 mmHg 64%
    15:00 +18°C° 0.1 mm 8 mps 758 mmHg 66%
    16:00 +17°C° 0 mm 7 mps 758 mmHg 66%
    17:00 +16°C° 0 mm 7 mps 759 mmHg 66%
    18:00 +15°C° 0 mm 7 mps 760 mmHg 65%
    19:00 +14°C° 0 mm 6 mps 760 mmHg 64%
    20:00 +13°C° 0 mm 5 mps 761 mmHg 62%
    21:00 +12°C° 0 mm 5 mps 762 mmHg 61%
    22:00 +11°C° 0 mm 4 mps 762 mmHg 63%
    23:00 +11°C° 0 mm 4 mps 763 mmHg 66%

    14 December, Friday

    Time Temperature Precipitation Wind Pressure Humidity
    00:00 +10°C° 0 mm 4 mps 763 mmHg 68%
    01:00 +9°C° 0 mm 5 mps 763 mmHg 70%
    02:00 +9°C° 0 mm 5 mps 763 mmHg 72%
    03:00 +8°C° 0 mm 6 mps 764 mmHg 73%
    04:00 +8°C° 0 mm 6 mps 764 mmHg 76%
    05:00 +8°C° 0 mm 7 mps 764 mmHg 78%
    06:00 +8°C° 0 mm 7 mps 764 mmHg 81%
    07:00 +9°C° 0 mm 8 mps 764 mmHg 78%
    08:00 +9°C° 0 mm 8 mps 765 mmHg 75%
    09:00 +10°C° 0 mm 9 mps 765 mmHg 72%
    10:00 +12°C° 0 mm 9 mps 765 mmHg 65%
    11:00 +13°C° 0 mm 10 mps 764 mmHg 57%
    12:00 +16°C° 0 mm 10 mps 764 mmHg 50%
    13:00 +16°C° 0 mm 10 mps 764 mmHg 51%
    14:00 +17°C° 0 mm 10 mps 764 mmHg 52%
    15:00 +17°C° 0 mm 9 mps 764 mmHg 53%
    16:00 +16°C° 0 mm 10 mps 764 mmHg 59%
    17:00 +14°C° 0 mm 10 mps 764 mmHg 65%
    18:00 +14°C° 0 mm 10 mps 764 mmHg 70%
    19:00 +13°C° 0 mm 10 mps 765 mmHg 74%
    20:00 +13°C° 0 mm 10 mps 765 mmHg 78%
    21:00 +13°C° 0 mm 10 mps 765 mmHg 81%
    22:00 +13°C° 0 mm 10 mps 765 mmHg 83%
    23:00 +13°C° 0 mm 10 mps 765 mmHg 84%

    15 December, Saturday

    Time Temperature Precipitation Wind Pressure Humidity
    00:00 +13°C° 0 mm 10 mps 765 mmHg 85%
    01:00 +13°C° 0 mm 10 mps 765 mmHg 85%
    02:00 +13°C° 0 mm 9 mps 765 mmHg 86%
    03:00 +13°C° 0 mm 9 mps 765 mmHg 86%
    04:00 +13°C° 0 mm 9 mps 765 mmHg 86%
    05:00 +13°C° 0 mm 9 mps 765 mmHg 87%
    06:00 +13°C° 0 mm 8 mps 765 mmHg 87%
    07:00 +13°C° 0 mm 8 mps 766 mmHg 85%
    08:00 +15°C° 0 mm 8 mps 766 mmHg 82%
    09:00 +16°C° 0 mm 8 mps 766 mmHg 80%
    10:00 +17°C° 0 mm 8 mps 766 mmHg 74%
    11:00 +18°C° 0 mm 8 mps 766 mmHg 68%
    12:00 +21°C° 0 mm 7 mps 766 mmHg 62%
    13:00 +21°C° 0 mm 7 mps 766 mmHg 63%
    14:00 +21°C° 0 mm 7 mps 765 mmHg 63%
    15:00 +20°C° 0 mm 6 mps 765 mmHg 63%
    16:00 +19°C° 0 mm 6 mps 765 mmHg 69%
    17:00 +17°C° 0 mm 5 mps 766 mmHg 76%
    18:00 +15°C° 0 mm 4 mps 766 mmHg 82%
    19:00 +15°C° 0 mm 4 mps 766 mmHg 85%
    20:00 +14°C° 0 mm 4 mps 767 mmHg 87%
    21:00 +14°C° 0 mm 4 mps 767 mmHg 89%
    22:00 +14°C° 0 mm 4 mps 767 mmHg 88%
    23:00 +14°C° 0 mm 4 mps 767 mmHg 88%
    Show more